Tracking 25710 objects as of 4-Jul-2022
HD Live streaming from Space Station
objects crossing your sky now

ONEWEB-0117

Track ONEWEB-0117 now!
10-day predictions
ONEWEB-0117 is classified as:


NORAD ID: 47263
Int'l Code: 2020-100F
Perigee: 1,219.4 km
Apogee: 1,222.4 km
Inclination: 87.9 °
Period: 109.7 minutes
Semi major axis: 7591 km
RCS: Unknown
Launch date: December 18, 2020
Source: United Kingdom (UK)
Launch site: VOSTOCHNY COSMODROME (VOSTO)
aabbcc
Your satellite tracking list
Your tracking list is empty




NASA's NSSDC Master Catalog

Two Line Element Set (TLE):
1 47263U 20100F   22184.75773389 -.00000492  00000-0 -14031-2 0  9999
2 47263  87.8902 277.6998 0001964 106.1395 253.9950 13.12442972 75067
Source of the keplerian elements: AFSPC